Location: Kunchanapalle
(16.4623°N, 80.6176°E)
Time: 10:13:51
(UTC+00:00)

Cosmos 1441 Rocket - Pass Details

Date: 13 August 2020
Orbit: 497 x 540 km, 81.1° (Epoch: 18 September)

Event Time Altitude Azimuth Distance (km) Brightness Sun altitude
Rises 13:28:01 0° 163° (SSE) 2,634 6.5 -6.5°
Reaches altitude 10° 13:30:26 10° 149° (SSE) 1,739 5.4 -7.1°
Maximum altitude 13:33:35 25° 94° (E) 1,068 4.2 -7.8°
Drops below altitude 10° 13:36:43 10° 38° (NE) 1,721 5.7 -8.5°
Sets 13:39:05 0° 24° (NNE) 2,599 6.7 -9.0°
